Regional Weather Roundup
Issued by NWS

Home | Current Version | Previous Version | Graphics & Text | Print | Product List | Glossary On
Versions: 1 2 3 4 5 6 7 8 9 10 11 12 13 14 15 16 17 18 19 20 21 22 23 24 25 26 27 28 29 30 31 32 33 34 35 36 37 38 39 40 41 42 43 44 45 46 47 48 49 50
000
ASUS43 KDMX 262307
RWRIA

WEATHER ROUNDUP FOR IOWA
NATIONAL WEATHER SERVICE DES MOINES IA
600 PM CDT TUE MAY 26 2015

NOTE: "FAIR" INDICATES FEW OR NO CLOUDS BELOW 12,000 FEET WITH NO
SIGNIFICANT WEATHER AND/OR OBSTRUCTIONS TO VISIBILITY.

* - THESE STATIONS ARE NOT NWS STATIONS...THUS NOT UNDER NWS
QUALITY CONTROL.  THEY ALSO DO NOT REPORT WEATHER SUCH
AS PRECIPITATION OR FOG.

IAZ001>003-012>014-020>022-031>034-043>046-270000-
   NORTHWEST IOWA

CITY           SKY/WX    TMP DP  RH WIND       PRES   REMARKS
CARROLL *      CLOUDY    64  63  94 W9        29.81S
CHEROKEE *     CLOUDY    59  57  94 NW7       29.84R
DENISON *      CLOUDY    63  63 100 NW9       29.82S
LE MARS *      CLOUDY    64  55  72 N9        29.85S
ORANGE CITY *  PTSUNNY   61  54  77 N8        29.84S
SHELDON *      CLOUDY    61  55  82 N8        29.83S
SIOUX CITY     SUNNY     68  54  60 N15       29.84S
SPENCER        CLOUDY    60  56  86 NW12      29.82S
STORM LAKE *   CLOUDY    61  57  88 NW10      29.83S
$$

IAZ055>058-069>071-079>083-090>094-270000-
   SOUTHWEST IOWA

CITY           SKY/WX    TMP DP  RH WIND       PRES   REMARKS
ATLANTIC *     CLOUDY    64  61  88 NW17      29.84R FOG
AUDUBON *      MOSUNNY   64  61  88 NW7       29.84R
COUNCIL BLFS * CLOUDY    64  63  94 NW8       29.87R
CRESTON *      MOSUNNY   68  63  83 W14       29.83R
HARLAN  *      CLOUDY    63  63 100 NW15      29.88R FOG
LAMONI         LGT RAIN  66  61  84 SW12      29.83R
RED OAK *      PTSUNNY   68  61  77 NW14G24   29.85S
SHENANDOAH *   MOSUNNY   72  61  68 W15       29.86S
$$

IAZ047>049-059>061-072>074-084-270000-
   CENTRAL IOWA

CITY           SKY/WX    TMP DP  RH WIND       PRES   REMARKS
AMES           MOSUNNY   69  60  73 W9        29.78S
ANKENY *       LGT RAIN  64  63  94 SW6       29.78F
CHARITON *     MOSUNNY   70  61  73 SW9       29.80S
DES MOINES     TSTM      67  63  87 W9        29.79S
GRINNELL*      CLOUDY    66  61  82 W8        29.80S
KNOXVILLE *    PTSUNNY   70  63  78 W10       29.78S
MARSHALLTOWN   MOSUNNY   71  62  73 W12       29.77S
PELLA *        HVY RAIN  70  66  88 W8        29.81R
PERRY *        HVY RAIN  64  61  88 NW14      29.81R
$$

IAZ004>006-015-016-023>025-035-036-270000-
   NORTH CENTRAL IOWA

CITY           SKY/WX    TMP DP  RH WIND       PRES   REMARKS
ALGONA *       CLOUDY    61  61 100 NW9       29.81R
CLARION *      CLOUDY    64 N/A N/A NW8       29.79S
ESTHERVILLE    CLOUDY    59  56  89 NW13      29.81S
FORT DODGE *   CLOUDY    63  57  82 W3        29.81R
MASON CITY     PTSUNNY   64  59  83 W10       29.79S
FOREST CITY *  CLOUDY    61  59  94 W8        29.78S
IOWA FALLS *     N/A     70  59  68 W10       29.79S
$$

IAZ007>011-017>019-026>030-037>042-050>054-066-270000-
   NORTHEAST IOWA

CITY           SKY/WX    TMP DP  RH WIND       PRES   REMARKS
CEDAR RAPIDS   MOSUNNY   71  61  70 W16       29.76F
CHARLES CITY * CLOUDY    64  63  94 NW13      29.77S
CLINTON *      MOSUNNY   72  59  64 W23G31    29.79R
DECORAH *      CLOUDY    64  61  88 VRB6G14   29.73R
DUBUQUE        PTSUNNY   67  59  75 W20G26    29.75R
MONTICELLO *   PTSUNNY   70  63  78 W13G21    29.76S
OELWEIN *      MOSUNNY   64  61  88 W14       29.77S
WATERLOO       MOSUNNY   68  62  81 W6        29.76S
$$

IAZ064-065-067-068-078-270000-
   EAST CENTRAL IOWA

CITY           SKY/WX    TMP DP  RH WIND       PRES   REMARKS
DAVENPORT      SUNNY     73  60  63 W22       29.79S
IOWA CITY      PTSUNNY   72  60  66 W14       29.79F
MT. PLEASANT * CLOUDY    73  61  64 SW9       29.80F
MUSCATINE *    CLOUDY    73  61  64 SW16      29.79S
QUAD CITIES    SUNNY     75  59  57 W17G24    29.78S
$$

IAZ062-063-075>077-085>089-095>099-270000-
   SOUTHEAST IOWA

CITY           SKY/WX    TMP DP  RH WIND       PRES   REMARKS
BURLINGTON     CLOUDY    73  62  68 SW9       29.80F
FAIRFIELD *    CLOUDY    68  63  83 SW9       29.80S HAZE
FORT MADISON * PTSUNNY   75  63  64 SW8       29.82F
KEOKUK *       PTSUNNY   77  63  61 SW15      29.80F
OSKALOOSA *    CLOUDY    72  61  68 SW14      29.80S
CENTERVILLE *  SUNNY     72  72 100 W10       29.83S
OTTUMWA        LGT RAIN  67  62  84 SW8       29.79F
WASHINGTON *   LGT RAIN  72  64  78 SW12G17   29.80F
$$

ABBREVIATIONS USED IN REMARKS
   TC - TEMPERATURES IN CELSIUS
  WCI - WIND CHILL INDEX
   HX - HEAT INDEX
  VSB - VISIBILITY
$$




USA.gov is the U.S. government's official web portal to all federal, state and local government web resources and services.